• In Kazakhstan
  • List of Countries
  • For 7 days
  • Water Temperature
  • Satellite Maps
  • Weather Map
  • News
  • Weather Widgets
  • user-avatar
    Login

    Hourly Weather Rangpur

    Today, 26 June, Wednesday

    Time Temperature Precipitation Wind Pressure Humidity
    00:00 +33°C° 0 mm 4 mps 748 mmHg 78%
    01:00 +31°C° 1 mm 3 mps 748 mmHg 80%
    02:00 +31°C° 1 mm 3 mps 747 mmHg 81%
    03:00 +30°C° 1 mm 3 mps 747 mmHg 83%
    04:00 +30°C° 1.5 mm 3 mps 747 mmHg 84%
    05:00 +30°C° 1.5 mm 2 mps 748 mmHg 84%
    06:00 +30°C° 1.5 mm 2 mps 748 mmHg 85%
    07:00 +30°C° 0.8 mm 3 mps 748 mmHg 83%
    08:00 +31°C° 0.8 mm 3 mps 748 mmHg 80%
    09:00 +33°C° 0.8 mm 4 mps 748 mmHg 78%
    10:00 +34°C° 0 mm 4 mps 748 mmHg 73%
    11:00 +36°C° 0 mm 4 mps 748 mmHg 68%
    12:00 +37°C° 0 mm 4 mps 747 mmHg 62%
    13:00 +39°C° 0.3 mm 5 mps 747 mmHg 58%
    14:00 +40°C° 0.3 mm 5 mps 746 mmHg 54%
    15:00 +41°C° 0.3 mm 5 mps 746 mmHg 51%
    16:00 +38°C° 0.2 mm 4 mps 745 mmHg 57%
    17:00 +37°C° 0.2 mm 3 mps 745 mmHg 63%
    18:00 +36°C° 0.2 mm 2 mps 745 mmHg 69%
    19:00 +35°C° 0 mm 2 mps 745 mmHg 70%
    20:00 +34°C° 0 mm 3 mps 745 mmHg 72%
    21:00 +34°C° 0 mm 4 mps 745 mmHg 73%
    22:00 +33°C° 0.1 mm 4 mps 745 mmHg 74%
    23:00 +33°C° 0.1 mm 4 mps 745 mmHg 75%

    Tomorrow, 27 June, Thursday

    Time Temperature Precipitation Wind Pressure Humidity
    00:00 +32°C° 0.1 mm 4 mps 745 mmHg 77%
    01:00 +32°C° 0.4 mm 4 mps 745 mmHg 77%
    02:00 +32°C° 0.4 mm 4 mps 744 mmHg 78%
    03:00 +32°C° 0.4 mm 4 mps 744 mmHg 78%
    04:00 +32°C° 0.3 mm 4 mps 744 mmHg 80%
    05:00 +30°C° 0.3 mm 4 mps 744 mmHg 82%
    06:00 +30°C° 0.3 mm 4 mps 744 mmHg 84%
    07:00 +32°C° 0 mm 4 mps 744 mmHg 80%
    08:00 +33°C° 0 mm 4 mps 745 mmHg 77%
    09:00 +34°C° 0 mm 4 mps 745 mmHg 74%
    10:00 +36°C° 0 mm 4 mps 745 mmHg 65%
    11:00 +38°C° 0 mm 4 mps 745 mmHg 56%
    12:00 +41°C° 0 mm 4 mps 744 mmHg 47%
    13:00 +41°C° 0 mm 4 mps 744 mmHg 48%
    14:00 +40°C° 0 mm 3 mps 743 mmHg 49%
    15:00 +40°C° 0 mm 3 mps 743 mmHg 49%
    16:00 +37°C° 0.8 mm 3 mps 742 mmHg 58%
    17:00 +35°C° 0.8 mm 4 mps 742 mmHg 67%
    18:00 +33°C° 0.8 mm 4 mps 742 mmHg 75%
    19:00 +32°C° 0.6 mm 5 mps 742 mmHg 78%
    20:00 +30°C° 0.6 mm 5 mps 743 mmHg 82%
    21:00 +30°C° 0.6 mm 6 mps 743 mmHg 85%
    22:00 +29°C° 1 mm 6 mps 744 mmHg 86%
    23:00 +29°C° 1 mm 6 mps 744 mmHg 87%

    Day after tomorrow, 28 June, Friday

    Time Temperature Precipitation Wind Pressure Humidity
    00:00 +29°C° 1 mm 6 mps 744 mmHg 87%
    01:00 +28°C° 1.2 mm 5 mps 744 mmHg 89%
    02:00 +28°C° 1.2 mm 5 mps 744 mmHg 90%
    03:00 +28°C° 1.2 mm 4 mps 744 mmHg 91%
    04:00 +28°C° 1 mm 4 mps 744 mmHg 92%
    05:00 +28°C° 1 mm 4 mps 743 mmHg 92%
    06:00 +28°C° 1 mm 4 mps 743 mmHg 93%
    07:00 +29°C° 1.6 mm 4 mps 744 mmHg 91%
    08:00 +29°C° 1.6 mm 4 mps 744 mmHg 90%
    09:00 +30°C° 1.6 mm 4 mps 745 mmHg 88%
    10:00 +33°C° 0.2 mm 5 mps 745 mmHg 82%
    11:00 +34°C° 0.2 mm 5 mps 745 mmHg 76%
    12:00 +36°C° 0.2 mm 5 mps 745 mmHg 69%
    13:00 +36°C° 2.3 mm 5 mps 744 mmHg 70%
    14:00 +36°C° 2.3 mm 5 mps 743 mmHg 70%
    15:00 +36°C° 2.3 mm 6 mps 743 mmHg 70%
    16:00 +35°C° 0.7 mm 6 mps 743 mmHg 73%
    17:00 +35°C° 0.7 mm 5 mps 743 mmHg 75%
    18:00 +34°C° 0.7 mm 5 mps 742 mmHg 78%
    19:00 +33°C° 0.6 mm 5 mps 743 mmHg 81%
    20:00 +32°C° 0.6 mm 5 mps 744 mmHg 84%
    21:00 +30°C° 0.6 mm 5 mps 744 mmHg 87%
    22:00 +30°C° 0.5 mm 5 mps 745 mmHg 88%
    23:00 +30°C° 0.5 mm 5 mps 745 mmHg 88%

    29 June, Saturday

    Time Temperature Precipitation Wind Pressure Humidity
    00:00 +29°C° 0.5 mm 5 mps 745 mmHg 89%
    01:00 +29°C° 0.4 mm 5 mps 745 mmHg 89%
    02:00 +29°C° 0.4 mm 4 mps 744 mmHg 90%
    03:00 +28°C° 0.4 mm 4 mps 744 mmHg 91%
    04:00 +28°C° 1.4 mm 4 mps 744 mmHg 92%
    05:00 +28°C° 1.4 mm 4 mps 744 mmHg 92%
    06:00 +28°C° 1.4 mm 4 mps 744 mmHg 93%
    07:00 +28°C° 1.2 mm 4 mps 744 mmHg 92%
    08:00 +29°C° 1.2 mm 4 mps 745 mmHg 91%
    09:00 +29°C° 1.2 mm 4 mps 745 mmHg 91%
    10:00 +30°C° 0.1 mm 4 mps 745 mmHg 88%
    11:00 +32°C° 0.1 mm 4 mps 745 mmHg 85%
    12:00 +32°C° 0.1 mm 4 mps 745 mmHg 82%
    13:00 +33°C° 0.1 mm 4 mps 744 mmHg 80%
    14:00 +34°C° 0.1 mm 4 mps 744 mmHg 77%
    15:00 +35°C° 0.1 mm 4 mps 743 mmHg 74%
    16:00 +35°C° 0.1 mm 4 mps 743 mmHg 75%
    17:00 +35°C° 0.1 mm 4 mps 743 mmHg 76%
    18:00 +35°C° 0.1 mm 4 mps 742 mmHg 77%
    19:00 +34°C° 0.6 mm 4 mps 743 mmHg 80%
    20:00 +33°C° 0.6 mm 4 mps 744 mmHg 84%
    21:00 +30°C° 0.6 mm 4 mps 744 mmHg 87%
    22:00 +30°C° 4.9 mm 4 mps 744 mmHg 89%
    23:00 +30°C° 4.9 mm 4 mps 745 mmHg 91%

    30 June, Sunday

    Time Temperature Precipitation Wind Pressure Humidity
    00:00 +29°C° 4.9 mm 4 mps 745 mmHg 93%
    01:00 +29°C° 2.4 mm 4 mps 744 mmHg 92%
    02:00 +29°C° 2.4 mm 4 mps 744 mmHg 92%
    03:00 +29°C° 2.4 mm 4 mps 744 mmHg 92%
    04:00 +29°C° 2.3 mm 3 mps 744 mmHg 93%
    05:00 +29°C° 2.3 mm 3 mps 744 mmHg 93%
    06:00 +29°C° 2.3 mm 2 mps 744 mmHg 94%
    07:00 +29°C° 0.3 mm 3 mps 744 mmHg 91%
    08:00 +30°C° 0.3 mm 3 mps 745 mmHg 88%
    09:00 +31°C° 0.3 mm 3 mps 745 mmHg 84%
    10:00 +33°C° 0 mm 3 mps 745 mmHg 79%
    11:00 +35°C° 0 mm 3 mps 744 mmHg 74%
    12:00 +36°C° 0 mm 3 mps 744 mmHg 69%
    13:00 +36°C° 0 mm 3 mps 744 mmHg 67%
    14:00 +37°C° 0 mm 3 mps 743 mmHg 64%
    15:00 +38°C° 0 mm 3 mps 743 mmHg 62%
    16:00 +37°C° 0.2 mm 3 mps 743 mmHg 64%
    17:00 +37°C° 0.2 mm 3 mps 743 mmHg 67%
    18:00 +36°C° 0.2 mm 3 mps 743 mmHg 70%
    19:00 +35°C° 0.4 mm 3 mps 743 mmHg 74%
    20:00 +34°C° 0.4 mm 3 mps 744 mmHg 77%
    21:00 +33°C° 0.4 mm 3 mps 744 mmHg 80%
    22:00 +33°C° 2.5 mm 4 mps 744 mmHg 83%
    23:00 +32°C° 2.5 mm 4 mps 744 mmHg 86%

    1 July, Monday

    Time Temperature Precipitation Wind Pressure Humidity
    00:00 +30°C° 2.5 mm 4 mps 744 mmHg 89%
    01:00 +30°C° 0.7 mm 4 mps 744 mmHg 89%
    02:00 +30°C° 0.7 mm 4 mps 744 mmHg 89%
    03:00 +30°C° 0.7 mm 4 mps 744 mmHg 89%
    04:00 +30°C° 0.7 mm 3 mps 744 mmHg 89%
    05:00 +29°C° 0.7 mm 3 mps 744 mmHg 89%
    06:00 +29°C° 0.7 mm 2 mps 745 mmHg 90%
    07:00 +29°C° 0.4 mm 2 mps 745 mmHg 88%
    08:00 +30°C° 0.4 mm 2 mps 746 mmHg 87%
    09:00 +30°C° 0.4 mm 2 mps 746 mmHg 86%
    10:00 +30°C° 0.2 mm 2 mps 746 mmHg 86%
    11:00 +30°C° 0.2 mm 3 mps 746 mmHg 86%
    12:00 +30°C° 0.2 mm 4 mps 746 mmHg 86%
    13:00 +30°C° 0 mm 4 mps 746 mmHg 84%
    14:00 +32°C° 0 mm 5 mps 745 mmHg 81%
    15:00 +33°C° 0 mm 6 mps 745 mmHg 79%
    16:00 +32°C° 0 mm 5 mps 744 mmHg 80%
    17:00 +32°C° 0 mm 4 mps 744 mmHg 81%
    18:00 +31°C° 0 mm 3 mps 743 mmHg 83%
    19:00 +30°C° 0 mm 3 mps 744 mmHg 85%
    20:00 +30°C° 0 mm 3 mps 744 mmHg 87%
    21:00 +29°C° 0 mm 3 mps 745 mmHg 89%
    22:00 +29°C° 0 mm 3 mps 745 mmHg 89%
    23:00 +29°C° 0 mm 3 mps 745 mmHg 89%
    Show more